Weather History for KMGY - November, 2013

Change the Weather History Date:

Sunday, November 10, 2013

  Actual Average (KDAY) Record (KDAY)
Temperature  
Mean Temperature 42 °F 45 °F  
Max Temperature 48 °F 54 °F 71 °F (2006)
Min Temperature 32 °F 37 °F 18 °F (1991)
Degree Days  
Heating Degree Days 23 20  
Month to date heating degree days 179  
Since 1 July heating degree days 626  
Cooling Degree Days 0 0  
Month to date cooling degree days 0  
Year to date cooling degree days 891  
Moisture  
Dew Point 29 °F    
Average Humidity 59    
Maximum Humidity 79    
Minimum Humidity 44    
Precipitation  
Precipitation 0.00 in 0.10 in 2.05 in (1985)
Month to date precipitation 1.05  
Year to date precipitation 35.59  
Snow  
Snow 0.00 in 0.00 in 0.20 in (1960)
Month to date snowfall 0.1  
Since 1 July snowfall 0.5  
Since 1 September snowfall 0.5  
Snow Depth -    
Sea Level Pressure  
Sea Level Pressure 30.26 in    
Wind  
Wind Speed 8 mph (WNW)    
Max Wind Speed 17 mph    
Max Gust Speed 24 mph    
Visibility 10 miles    
Events      
T = Trace of Precipitation, MM = Missing Value Source: NWS Daily Summary

Daily Weather History Graph

Daily Weather History Graph

Search for Another Location

Airport or City:

Trip Planner

Search our weather history database for the weather conditions in past years. The results will help you decide how hot, cold, wet, or windy it might be!

Date:

Astronomy

Nov. 10, 2013 Rise Set
Actual Time 7:15 AM EST 5:25 PM EST
Civil Twilight 6:47 AM EST 5:54 PM EST
Nautical Twilight 6:14 AM EST 6:26 PM EST
Astronomical Twilight 5:43 AM EST 6:57 PM EST
Moon 1:29 PM EST (11/10) No Moon Set
Length of Visible Light 11h 06m
Length of Day
10h 09m
First Quarter, 55% of the Moon is Illuminated
Nov 10
First Quarter
Nov 17
Full
Nov 25
Last Quarter
Dec 2
New
Dec 9
First Quarter

Hourly Weather History & Observations

Time (EST) Temp. Windchill Dew Point Humidity Pressure Visibility Wind Dir Wind Speed Gust Speed Precip Events Conditions
12:53 AM 48.9 °F - 37.9 °F 66% 30.09 in 10.0 mi WSW 8.1 mph - N/A   Clear
1:53 AM 48.9 °F - 36.0 °F 61% 30.10 in 10.0 mi West 8.1 mph - N/A   Clear
2:53 AM 46.9 °F - 36.0 °F 66% 30.11 in 10.0 mi WSW 5.8 mph - N/A   Clear
3:53 AM 46.0 °F 41.9 °F 35.1 °F 66% 30.11 in 10.0 mi WSW 8.1 mph - N/A   Clear
4:53 AM 45.0 °F 40.1 °F 34.0 °F 65% 30.12 in 10.0 mi West 9.2 mph - N/A   Clear
5:53 AM 43.0 °F 36.8 °F 33.1 °F 68% 30.16 in 10.0 mi West 11.5 mph 21.9 mph N/A   Clear
6:53 AM 42.1 °F 33.9 °F 28.9 °F 60% 30.19 in 10.0 mi West 17.3 mph 24.2 mph N/A   Clear
7:53 AM 39.9 °F 32.5 °F 27.0 °F 60% 30.23 in 10.0 mi WNW 12.7 mph 20.7 mph N/A   Partly Cloudy
8:53 AM 41.0 °F 35.2 °F 26.1 °F 55% 30.26 in 10.0 mi WNW 9.2 mph 20.7 mph N/A   Clear
9:53 AM 43.0 °F 35.7 °F 26.1 °F 51% 30.28 in 10.0 mi NW 15.0 mph 23.0 mph N/A   Clear
10:53 AM 44.1 °F 38.6 °F 26.1 °F 49% 30.29 in 10.0 mi NW 10.4 mph 19.6 mph N/A   Clear
11:53 AM 45.0 °F 39.3 °F 28.0 °F 52% 30.30 in 10.0 mi NW 11.5 mph - N/A   Clear
12:53 PM 46.9 °F - 28.0 °F 48% 30.31 in 10.0 mi WNW 11.5 mph 20.7 mph N/A   Scattered Clouds
1:53 PM 48.0 °F - 27.0 °F 44% 30.30 in 10.0 mi WNW 10.4 mph - N/A   Mostly Cloudy
2:53 PM 48.0 °F - 28.0 °F 46% 30.30 in 10.0 mi NNW 11.5 mph - N/A   Partly Cloudy
3:53 PM 46.9 °F - 27.0 °F 46% 30.31 in 10.0 mi West 6.9 mph 16.1 mph N/A   Partly Cloudy
4:53 PM 46.0 °F 42.5 °F 27.0 °F 47% 30.33 in 10.0 mi WNW 6.9 mph - N/A   Clear
5:53 PM 43.0 °F - 28.0 °F 56% 30.33 in 10.0 mi Calm Calm - N/A   Clear
6:53 PM 42.1 °F - 28.0 °F 58% 30.35 in 10.0 mi Calm Calm - N/A   Clear
7:53 PM 41.0 °F 39.0 °F 28.0 °F 60% 30.35 in 10.0 mi NW 3.5 mph - N/A   Clear
8:53 PM 39.0 °F - 28.0 °F 65% 30.35 in 10.0 mi Calm Calm - N/A   Clear
9:53 PM 37.0 °F - 28.0 °F 70% 30.35 in 10.0 mi Calm Calm - N/A   Clear
10:53 PM 36.0 °F - 28.0 °F 73% 30.34 in 10.0 mi Calm Calm - N/A   Clear
11:53 PM 32.0 °F - 26.1 °F 79% 30.31 in 10.0 mi Calm Calm - N/A   Clear